Theta_e
334 335 334 333 333 332 333 332 332 332 331 332 333 330 332 333 332 332 331 330 330 328 329 331 331 332 332 333 333 333 333 332 332 332 331 331 323 315 313 311 311 311 311 311 310 310 310 308 308 307 308 308 308 308 308 308 308 308 308 308 308 310 312 314 316 316 316 315 314 314 313 314 315 318 323 325 326 327 326 327 329 330 331 330 331
334 334 332 332 333 331 333 332 331 333 331 331 332 331 332 332 330 331 331 330 330 329 330 331 332 332 333 333 332 331 332 332 332 332 332 332 326 318 317 315 313 313 312 312 312 312 311 310 310 308 306 306 307 308 308 308 307 308 309 311 312 314 315 317 316 316 315 315 314 314 313 313 315 318 323 326 326 326 326 327 328 330 331 331 331
333 333 333 332 333 331 332 333 332 333 331 332 333 332 332 332 331 332 331 331 330 331 330 331 333 333 333 333 331 331 332 332 332 332 332 333 329 324 322 321 319 317 314 313 312 313 313 313 313 312 309 306 306 306 306 307 308 310 313 314 316 317 317 317 316 315 315 314 314 313 313 313 315 317 322 325 326 327 327 326 328 330 331 331 332
334 334 333 332 332 330 331 333 333 333 332 333 333 333 333 333 333 333 332 333 332 332 333 333 334 334 333 332 331 332 332 332 333 333 332 333 333 331 328 326 324 323 320 317 314 313 313 313 314 315 314 311 309 308 308 309 311 314 316 316 317 317 317 316 315 315 314 314 313 313 313 314 316 319 323 326 327 328 327 326 327 329 331 332 332
335 335 334 333 332 329 330 332 332 332 332 333 333 333 334 334 334 335 333 334 335 334 335 334 334 334 333 332 332 331 332 333 333 333 333 333 334 334 333 330 327 326 326 323 320 317 314 313 313 314 315 315 314 313 313 314 315 316 317 317 317 316 315 315 314 314 314 314 313 313 313 314 318 322 324 326 328 328 328 327 327 328 330 332 332
335 336 335 334 334 330 330 332 331 332 332 332 333 332 334 335 334 335 335 334 335 335 335 335 334 333 332 332 332 331 331 332 332 333 333 333 334 334 334 332 330 329 328 327 326 323 320 316 314 313 314 314 315 315 315 316 316 316 316 316 315 315 315 314 314 314 314 314 313 313 313 315 320 323 326 327 328 329 328 328 327 328 331 332 332
334 336 336 336 336 332 332 333 331 332 332 331 334 333 333 335 334 334 334 334 334 335 334 334 333 332 332 332 332 331 331 331 332 333 333 333 334 334 333 333 332 331 329 329 328 328 326 323 319 317 315 314 314 314 314 315 316 315 314 314 314 314 314 314 314 314 314 314 314 314 314 316 321 324 326 327 328 329 329 329 328 329 330 332 333
332 334 335 335 335 333 333 332 330 332 333 332 333 333 332 334 335 334 334 334 334 334 333 333 332 332 332 331 331 330 331 332 332 333 333 333 334 334 333 333 334 332 331 330 330 329 329 328 325 322 320 318 316 315 314 314 314 314 314 313 314 314 314 315 315 315 315 315 316 316 316 318 321 324 326 327 328 329 329 329 329 329 331 333 333
331 333 333 334 334 333 333 332 332 332 332 331 330 332 332 332 334 335 334 334 334 333 333 332 332 332 331 330 330 329 330 331 332 331 332 333 334 334 334 334 334 334 333 332 331 331 330 330 329 327 326 324 323 322 320 318 317 317 317 317 316 317 318 319 319 319 319 319 320 320 320 321 322 324 326 327 328 330 329 329 330 330 331 332 332
331 331 330 331 332 333 333 332 334 332 330 331 330 331 334 332 332 333 333 334 334 334 333 332 332 330 330 328 328 328 328 330 331 331 331 333 333 333 334 334 334 335 334 333 333 333 332 332 331 330 329 328 327 326 325 324 323 323 323 323 322 323 323 324 324 324 324 324 324 324 324 325 325 326 327 328 329 329 330 330 330 331 331 332 332
331 331 329 329 330 332 334 332 332 330 329 331 329 328 332 333 331 330 329 331 333 335 334 332 331 330 328 328 327 327 327 329 330 330 331 332 333 333 334 334 334 335 334 334 334 335 334 333 333 332 331 330 330 330 329 328 327 327 326 326 326 326 326 326 326 327 327 327 327 327 327 327 327 328 328 328 329 329 330 330 331 331 331 331 332
332 332 331 329 329 332 333 332 331 331 330 328 325 327 331 333 332 328 326 329 332 334 335 333 332 330 327 327 327 326 327 328 327 327 328 330 332 334 334 334 334 334 334 334 335 336 336 335 334 334 333 332 332 332 333 332 331 330 330 329 329 329 330 329 329 328 328 328 328 328 328 328 328 329 329 329 329 329 330 330 331 331 331 331 332
333 333 331 331 331 331 332 333 332 332 332 329 327 329 331 332 332 329 329 331 332 333 335 335 335 333 329 327 326 326 327 327 326 326 326 327 330 333 334 334 334 334 334 334 335 336 337 336 335 335 334 334 334 334 334 333 334 333 333 332 332 332 332 333 332 332 331 331 331 331 330 330 330 330 330 330 330 330 330 331 331 331 331 332 332
333 332 332 331 332 332 333 333 332 332 333 331 329 330 332 332 333 331 330 332 333 333 335 336 336 335 333 331 328 328 327 327 327 327 327 327 328 330 332 332 333 334 333 334 335 335 336 336 336 335 335 335 334 333 333 333 333 333 334 334 334 334 334 334 334 334 334 334 333 333 333 333 332 332 332 332 332 331 331 331 331 332 331 332 332
333 332 333 332 333 333 333 333 333 332 333 333 331 330 331 333 333 332 331 332 334 335 335 335 334 334 335 333 331 330 327 328 329 328 327 326 326 327 329 329 331 332 331 333 335 334 335 336 336 336 335 334 331 329 330 331 331 332 333 334 333 334 334 334 335 334 334 334 334 334 333 333 332 332 333 333 333 333 333 333 332 332 332 332 332
333 334 334 333 333 334 333 333 333 332 332 333 332 331 331 333 333 333 334 335 335 335 335 333 331 331 334 335 332 330 330 331 331 329 327 326 326 326 326 326 328 331 332 333 335 335 335 335 335 334 333 332 331 329 329 329 330 331 331 332 333 333 333 334 334 334 334 334 334 333 331 330 330 331 332 332 332 332 332 333 333 333 332 332 332
333 333 334 334 334 334 333 333 332 332 332 332 332 333 333 333 334 334 335 336 336 335 335 332 328 328 331 333 332 332 334 334 332 330 328 327 328 328 328 328 329 332 334 333 333 335 335 334 334 334 333 332 330 329 329 328 328 329 330 330 332 332 333 333 333 333 333 333 333 332 331 331 331 332 332 332 332 331 331 331 331 332 332 332 332
332 333 333 333 334 334 334 333 332 332 332 331 332 333 333 333 333 333 333 334 334 335 334 332 330 328 328 331 332 333 334 333 332 331 330 329 328 330 331 331 331 333 335 334 332 332 333 334 335 336 335 331 328 327 327 328 327 327 327 327 327 329 330 331 332 333 333 333 332 331 330 331 332 332 332 331 331 330 330 329 330 331 332 332 332
329 330 330 331 332 334 334 334 333 332 332 332 332 332 332 333 332 332 332 332 333 333 332 332 332 329 328 329 330 332 333 331 332 332 332 332 329 329 332 332 333 334 335 335 333 331 333 335 334 334 334 331 327 326 327 327 326 326 326 325 326 329 331 332 332 332 332 332 331 331 330 331 332 332 331 331 331 330 329 329 329 330 331 332 333
326 326 328 329 328 331 334 334 333 332 332 332 333 332 333 333 333 333 333 333 334 333 331 331 331 329 329 330 329 331 330 329 332 333 332 332 330 329 330 331 334 334 334 334 333 333 334 334 333 332 332 330 328 328 327 326 326 327 327 327 328 330 332 332 332 332 332 331 331 330 329 330 331 332 331 331 331 330 329 328 329 330 330 332 333
326 325 327 328 328 328 330 332 332 333 332 332 333 333 333 333 333 333 333 333 333 332 332 331 330 330 331 330 329 329 329 329 332 332 330 330 331 330 329 330 332 332 331 333 334 334 334 334 333 333 332 331 330 328 327 327 327 329 329 329 330 331 331 331 332 332 331 330 329 329 328 329 331 332 332 332 331 329 329 329 329 329 330 332 333
327 326 325 327 328 327 326 327 328 330 330 332 333 333 333 333 332 331 331 332 332 332 332 330 328 330 330 330 329 328 328 330 332 331 329 330 331 330 329 330 330 329 327 329 332 334 335 335 334 333 332 331 329 327 326 327 328 328 329 329 330 330 331 331 331 331 331 331 331 330 330 330 331 332 332 332 331 329 329 330 330 329 329 331 332
327 326 325 328 331 330 328 327 326 326 327 331 333 333 333 332 331 331 331 331 330 330 331 328 326 328 329 329 330 329 330 331 332 331 330 330 331 331 330 331 331 330 329 329 332 334 335 334 333 332 332 329 328 327 327 328 327 327 327 328 328 329 329 329 330 330 331 331 331 331 331 331 331 331 331 331 331 330 331 331 331 330 329 330 331
329 327 326 328 331 332 332 330 327 325 327 330 332 332 331 332 332 332 332 330 328 329 331 329 327 328 328 327 329 329 330 330 331 331 331 330 330 331 332 332 332 333 331 330 332 335 335 334 333 333 332 330 329 328 328 329 327 325 326 325 325 326 326 327 328 328 329 329 329 330 330 330 330 330 329 330 330 331 332 331 329 329 330 331 330
328 325 324 325 327 330 331 330 329 330 331 332 331 330 330 333 333 332 331 331 330 329 330 330 329 330 329 327 327 328 329 330 330 330 331 332 332 333 332 332 332 333 333 332 333 334 334 333 333 333 333 333 333 331 330 330 327 325 325 324 325 325 327 328 327 327 328 327 328 328 328 329 329 329 329 329 331 332 331 328 328 330 331 330 328
326 325 325 326 327 328 329 328 330 333 334 333 330 330 330 331 332 332 331 331 331 330 329 329 330 330 330 329 328 329 329 330 330 329 329 332 333 334 333 333 332 333 334 334 333 334 333 333 333 332 332 332 333 332 329 326 325 325 324 323 324 325 326 328 327 327 327 326 326 326 327 327 328 328 328 329 330 331 330 327 328 331 331 330 329
331 331 330 330 329 329 328 327 327 329 331 331 330 330 331 331 332 332 332 333 332 331 329 328 329 330 330 329 329 330 331 331 329 327 328 331 333 334 334 334 333 332 333 333 332 332 333 334 333 332 334 333 332 331 328 324 325 326 323 322 323 323 324 325 326 326 325 325 325 325 326 326 327 327 328 328 329 330 329 327 328 331 331 330 331
332 332 331 331 332 332 330 328 325 326 328 330 331 332 332 332 332 332 333 333 332 331 329 329 330 331 331 329 329 332 333 332 330 329 329 332 334 335 334 334 334 332 331 331 332 331 330 333 334 333 335 334 331 330 327 324 324 324 323 322 320 319 320 321 321 321 322 323 324 325 325 325 326 326 326 327 328 328 328 327 328 330 331 330 331
331 330 330 330 332 334 333 330 328 327 329 332 334 333 333 333 333 333 332 333 333 333 331 330 332 333 332 331 330 333 334 334 333 332 332 333 334 335 334 335 335 332 331 331 331 331 329 331 333 333 335 334 331 330 329 327 325 323 322 320 318 317 317 317 317 317 317 319 322 324 325 325 324 324 325 326 327 327 327 327 329 330 330 329 330
329 329 329 330 332 335 335 333 331 329 330 333 335 334 334 333 333 333 333 333 334 334 333 332 333 333 333 332 332 333 334 335 333 333 333 333 333 334 335 335 335 333 332 331 330 331 331 331 332 332 333 333 331 331 330 329 328 325 320 318 317 317 317 317 317 316 316 318 319 321 323 323 324 323 323 324 325 327 327 327 330 330 329 330 330
328 328 329 331 332 334 335 334 333 331 330 332 334 334 333 332 332 332 333 333 333 334 334 332 333 333 332 332 333 333 334 334 333 333 333 332 330 332 335 335 335 334 334 333 331 331 332 333 332 332 332 331 331 330 328 328 327 322 319 317 317 318 318 317 316 316 317 318 319 319 320 320 322 323 323 323 323 324 326 327 329 329 330 330 331
328 328 329 330 331 333 334 334 334 331 331 332 333 334 333 333 333 333 333 333 333 335 334 333 334 334 332 332 333 333 333 333 332 332 332 330 328 330 333 333 334 333 331 332 332 331 331 331 331 331 331 331 330 329 328 326 323 319 318 319 320 322 320 316 316 320 321 322 322 321 320 319 318 319 320 321 322 321 322 325 328 329 330 330 331
328 328 329 330 330 332 333 333 333 332 332 332 333 334 334 334 334 334 334 334 334 334 333 333 334 334 333 334 333 334 334 333 332 331 331 329 328 327 328 331 333 333 330 331 333 332 330 330 331 332 332 331 330 329 327 325 321 317 320 323 322 321 320 318 321 323 323 323 323 322 322 321 318 316 316 318 320 321 320 321 325 328 330 330 331
328 328 329 329 330 331 332 331 332 333 334 334 334 334 335 335 335 334 334 334 334 333 332 333 334 334 334 334 335 335 334 334 334 333 332 332 332 330 329 331 334 334 334 333 333 333 331 331 333 333 332 331 330 328 326 324 320 318 321 324 320 317 320 323 324 324 324 325 323 323 323 320 318 317 316 317 318 320 320 320 323 326 328 330 330
327 327 328 329 330 331 331 331 332 333 334 334 334 333 334 334 334 334 333 332 332 332 332 333 334 334 332 332 333 333 332 333 335 335 334 334 335 334 333 333 334 334 335 334 333 332 332 332 333 332 331 331 329 326 324 324 321 318 322 323 319 319 323 326 325 324 324 324 323 323 322 320 319 319 317 318 320 321 321 321 323 325 326 328 329
327 326 327 329 330 330 331 331 332 333 333 334 334 333 333 333 334 334 333 332 331 331 331 331 332 331 328 328 330 329 327 327 329 332 334 334 334 334 334 334 334 334 335 335 332 330 329 330 331 332 331 330 327 324 323 323 321 320 324 323 320 323 325 325 324 323 322 322 323 323 322 321 322 321 319 319 319 320 321 323 324 325 325 327 328
327 327 327 329 329 330 330 331 331 332 333 334 334 334 333 333 333 333 334 333 332 330 330 329 330 330 329 329 328 326 325 323 324 330 334 333 333 332 333 334 334 334 335 333 331 329 327 330 332 332 330 328 326 324 323 323 321 321 325 322 319 323 325 323 322 322 322 323 323 323 322 321 322 322 321 321 320 319 320 321 322 323 324 326 327
327 327 327 328 329 329 330 330 330 331 332 333 334 334 333 332 332 332 333 333 332 331 330 330 330 330 328 327 326 325 325 324 325 330 332 332 333 333 333 333 332 333 335 333 331 330 329 331 332 331 328 326 325 324 323 324 321 321 324 322 318 319 320 319 321 322 322 323 322 322 321 321 322 323 322 321 321 320 320 320 320 320 322 324 325
327 328 327 329 328 328 330 331 330 332 333 333 334 335 334 332 332 333 332 332 333 332 331 330 329 328 327 328 328 327 326 325 325 327 330 332 333 334 333 332 330 333 335 333 331 331 330 331 331 328 326 324 324 323 323 323 322 322 323 320 317 317 317 318 320 322 322 322 321 320 320 320 322 323 322 321 321 321 322 321 320 320 321 322 324
327 328 329 332 331 329 330 331 331 333 334 334 335 336 334 332 332 332 332 332 333 331 330 330 329 329 328 327 326 326 326 325 324 327 330 331 332 334 333 331 329 330 331 329 329 330 331 331 330 328 325 323 323 323 322 323 322 322 321 318 317 319 319 318 319 321 321 320 319 319 318 318 322 323 321 321 322 323 323 322 321 320 320 322 324
327 328 331 334 334 333 332 332 331 334 335 335 335 336 335 334 333 332 332 333 333 330 330 331 332 331 329 327 327 326 324 323 324 328 331 330 331 333 333 330 327 326 325 325 327 328 330 331 329 327 324 323 323 323 322 322 321 321 320 318 318 320 319 318 318 319 319 318 317 316 314 315 320 322 321 320 323 323 322 321 320 319 319 320 322
329 331 334 336 336 334 333 333 333 336 338 336 335 336 336 336 335 333 332 333 332 330 331 331 331 330 328 326 328 328 326 324 324 326 329 329 329 332 332 331 328 325 324 324 325 327 329 330 328 326 324 323 323 323 322 322 321 320 320 319 319 320 319 318 318 319 319 318 315 312 312 315 320 321 320 321 322 322 321 320 319 318 318 318 319
331 333 336 336 336 335 334 335 336 337 337 336 336 337 337 336 335 334 333 333 333 332 332 332 330 329 327 324 325 328 328 326 324 323 326 328 329 330 332 332 330 328 326 324 324 327 329 329 327 325 324 323 322 322 322 321 321 321 320 318 320 321 319 318 317 318 318 317 314 312 314 317 320 320 320 320 320 320 320 319 318 317 316 316 317
333 335 336 336 336 337 337 337 337 336 336 337 337 336 335 334 335 335 334 333 333 333 332 330 329 328 328 326 326 328 328 328 325 322 323 327 328 328 328 329 329 328 326 323 323 327 329 329 327 325 323 323 322 321 322 321 321 321 320 319 320 320 318 316 316 317 316 316 315 314 314 316 318 318 318 319 320 320 319 317 316 315 314 314 317
333 334 335 335 335 338 338 337 336 334 334 336 337 335 333 332 333 334 334 333 332 332 330 329 329 329 328 327 328 329 328 327 325 322 322 325 327 326 326 327 326 326 324 322 322 325 327 328 327 324 323 323 322 321 321 321 321 321 321 319 318 317 316 316 316 317 317 317 317 316 314 315 317 318 318 319 319 318 317 316 315 315 314 312 314
332 333 334 334 335 336 335 335 335 334 333 335 336 335 334 333 333 332 332 332 332 331 330 329 328 328 328 329 330 330 327 325 324 323 323 323 324 325 326 326 326 324 323 322 322 323 326 328 326 324 323 322 322 322 322 321 321 320 320 319 317 316 316 317 317 317 317 317 318 317 315 314 316 317 318 318 318 316 316 315 314 315 315 313 313
333 334 334 334 334 335 334 335 336 335 334 334 335 335 335 334 332 331 330 331 332 333 332 331 330 329 329 331 332 331 329 326 324 323 323 323 325 326 327 326 325 323 323 324 324 323 324 326 326 324 323 322 322 322 321 321 320 319 317 317 316 316 317 317 317 316 316 316 317 318 317 315 314 315 316 317 317 316 316 315 315 315 316 314 312
333 334 333 332 333 333 333 333 334 334 334 334 333 333 334 334 333 331 329 329 330 331 330 330 331 331 331 331 332 332 331 329 326 323 322 323 326 328 328 327 325 324 325 325 324 324 324 325 325 324 323 322 322 321 320 319 318 316 316 315 315 317 318 317 317 316 316 316 316 317 317 316 314 314 315 316 317 317 316 316 316 316 315 313 312
333 333 332 332 332 332 332 332 332 333 333 332 331 332 334 335 333 331 330 328 326 325 324 324 326 328 330 330 330 330 330 329 327 324 323 324 326 328 329 329 327 327 327 326 325 325 325 325 325 325 324 322 320 319 318 317 316 315 314 314 315 316 316 316 317 317 316 315 315 316 316 316 316 315 315 316 316 316 316 316 316 316 315 314 313
333 334 333 334 333 332 331 330 331 332 332 330 329 331 332 333 333 332 331 329 326 324 322 321 321 324 327 330 330 329 330 329 326 324 324 326 326 328 330 330 328 327 328 327 326 326 326 325 325 324 323 322 320 318 317 316 315 314 313 314 314 314 315 316 317 317 315 314 316 316 316 316 317 316 315 315 314 315 317 317 316 316 315 314 314
333 333 333 332 331 331 329 328 328 330 330 329 328 329 329 330 331 331 331 330 328 326 324 322 321 322 324 328 329 329 328 328 326 326 326 327 327 328 330 331 330 329 328 328 327 326 326 325 324 323 322 322 320 318 317 315 314 313 313 313 313 313 314 314 316 317 315 315 316 316 316 317 316 316 316 315 315 316 318 318 317 316 315 314 314
Wind_Speed
10 10 9 9 6 7 13 12 8 10 7 11 10 7 4 5 5 5 5 7 8 8 8 9 8 5 5 5 3 4 4 5 6 5 8 6 2 2 0 2 3 4 5 6 7 7 7 7 7 8 8 8 8 8 8 7 6 6 5 4 4 3 3 2 2 3 3 4 4 4 4 4 3 2 4 5 6 6 7 7 8 8 10 12 13
9 9 8 9 9 11 16 13 8 12 9 10 13 11 10 9 10 9 7 7 8 8 9 8 7 5 5 4 3 4 5 5 6 6 8 6 1 1 1 0 1 2 4 5 6 8 8 8 8 8 9 9 8 8 8 7 7 7 5 4 4 3 1 0 1 2 3 3 3 3 3 2 1 2 4 5 5 6 6 7 7 7 10 12 13
14 14 13 13 14 16 16 11 9 13 12 12 14 15 14 11 11 11 9 9 10 9 8 8 7 5 4 5 4 4 5 5 5 6 8 8 3 1 0 1 1 0 2 4 6 7 8 8 8 8 8 9 9 8 8 7 7 7 6 5 4 3 2 1 1 2 2 3 3 3 2 1 1 2 4 6 6 6 6 6 6 7 10 12 13
17 19 19 19 16 16 16 13 12 13 13 13 14 14 13 11 11 12 12 11 11 10 7 8 8 7 7 8 8 7 6 5 5 6 7 9 7 5 4 3 2 1 0 1 4 6 7 8 8 7 8 8 8 8 8 8 8 7 6 6 5 4 3 3 2 2 3 3 3 2 2 1 1 3 4 5 6 6 6 6 7 8 10 12 13
18 19 19 19 16 14 14 12 13 13 12 12 13 12 11 11 11 11 12 11 9 9 8 9 10 10 11 10 10 10 9 8 8 7 7 9 9 7 6 6 4 3 2 1 1 3 5 7 8 8 8 8 9 9 9 9 8 7 6 6 6 5 4 3 3 3 3 3 3 2 2 1 1 3 4 4 5 5 6 7 8 8 9 11 13
17 17 16 15 14 14 14 13 13 11 13 12 12 13 12 12 12 9 9 9 7 9 10 11 10 10 10 10 10 10 11 10 10 9 9 8 8 7 7 6 6 5 5 3 2 2 2 4 6 7 8 9 9 9 10 9 9 8 7 7 6 5 5 4 3 3 3 3 2 2 2 1 1 2 3 3 4 6 6 7 8 8 8 11 13
16 15 15 15 14 15 16 14 15 12 14 14 13 13 12 11 9 8 9 8 8 10 11 10 9 9 9 9 9 10 11 11 9 9 10 9 7 7 8 7 7 7 6 6 4 3 2 2 1 3 5 7 8 8 9 9 10 9 8 7 6 5 4 4 3 3 2 1 1 1 1 1 1 2 2 3 5 6 6 7 8 8 9 11 12
17 17 17 16 15 16 16 13 14 15 16 16 14 12 12 12 10 9 10 8 8 11 11 10 9 9 9 9 8 8 9 10 9 9 11 9 7 8 10 9 8 9 8 7 6 4 4 3 1 1 1 2 3 4 5 6 7 7 6 5 5 4 3 3 2 0 0 1 1 1 1 1 1 1 2 4 5 6 6 7 8 9 10 11 12
18 19 18 17 16 16 15 15 14 18 17 14 13 12 10 12 12 11 11 9 8 10 11 10 10 9 9 10 9 8 8 9 9 9 11 10 8 8 10 10 10 11 9 9 8 6 5 4 3 2 1 1 1 1 2 3 3 4 3 3 3 2 2 2 1 2 2 2 2 2 2 1 1 2 3 4 5 6 7 8 9 10 10 11 13
19 20 19 18 16 15 16 16 15 16 15 14 14 13 11 13 13 12 12 11 8 10 11 9 8 8 9 9 9 10 9 9 9 8 9 10 10 8 8 10 12 12 10 10 10 9 7 6 5 4 3 3 2 1 1 0 1 1 2 2 2 2 1 1 1 1 1 2 2 2 2 3 3 4 5 5 6 7 8 9 10 11 11 12 13
19 20 19 18 17 17 16 14 13 13 15 17 16 15 12 12 13 13 13 12 9 9 11 8 8 8 8 8 8 9 9 9 9 9 9 10 10 9 9 11 12 12 12 12 12 11 10 8 7 5 4 4 3 2 2 3 3 3 2 2 1 2 2 1 1 2 2 3 3 4 4 5 6 6 7 7 8 9 9 10 11 12 12 12 13
20 20 20 19 19 18 15 12 13 14 14 16 16 14 13 14 15 14 12 11 10 9 10 8 8 9 8 7 7 8 10 10 10 11 11 11 11 12 13 12 11 12 13 14 14 13 11 10 9 7 6 4 3 2 2 3 4 5 5 5 4 4 4 4 4 5 5 6 6 6 7 7 8 9 9 10 10 10 11 11 12 12 13 13 13
20 19 18 19 18 16 14 12 14 14 13 14 14 13 13 15 16 13 11 11 9 9 9 7 6 8 8 7 8 8 9 10 11 11 12 12 13 14 14 14 14 15 14 13 13 12 11 11 9 7 6 5 5 5 4 4 5 5 6 6 6 5 6 6 6 7 8 8 9 9 9 10 10 11 12 12 12 12 13 13 13 13 13 13 13
18 17 16 16 16 15 14 15 15 15 14 14 15 15 14 15 15 14 12 11 9 10 11 8 6 6 8 8 7 7 8 10 11 11 12 13 14 15 15 15 16 16 15 13 12 12 13 13 10 7 7 5 4 6 6 7 7 6 6 6 7 7 7 7 7 8 9 9 10 10 11 11 12 12 13 14 14 14 14 14 14 14 14 14 14
17 17 17 17 17 17 16 16 17 17 15 15 15 17 17 16 15 14 12 11 11 12 12 10 8 8 8 8 7 7 8 9 10 11 12 13 14 15 14 15 17 17 17 16 15 14 14 14 11 9 7 3 2 6 6 7 6 5 5 6 7 7 7 8 8 8 9 9 10 11 11 11 11 12 13 13 14 14 15 14 14 14 14 14 14
17 17 17 17 17 17 16 16 17 17 16 16 16 16 17 17 15 14 13 12 13 12 10 10 10 8 7 7 7 7 6 7 8 10 11 12 13 14 14 14 15 15 15 15 16 15 14 12 10 8 4 1 3 6 5 5 4 3 5 5 6 7 7 8 8 8 9 9 10 10 10 10 11 11 11 12 13 13 14 14 14 14 14 13 13
16 16 16 16 16 16 16 16 17 17 16 15 15 15 15 15 15 15 14 13 12 11 10 10 10 9 8 8 6 4 5 7 9 9 10 10 10 12 14 13 12 11 10 11 13 12 11 10 8 4 1 2 2 3 2 3 2 2 4 4 5 6 7 7 8 9 9 9 9 9 10 10 11 10 10 11 12 12 12 12 12 12 13 13 13
16 16 16 15 15 16 16 15 16 16 15 15 14 14 14 14 15 15 16 14 12 12 11 10 9 9 10 10 8 5 5 7 7 6 8 9 9 10 11 11 10 9 9 8 8 7 6 6 3 1 0 2 3 3 3 3 2 2 2 2 3 5 6 7 7 8 8 8 9 10 10 11 10 10 10 11 12 12 12 12 11 11 11 12 13
17 17 16 15 15 15 14 15 15 14 14 14 13 12 12 11 13 14 14 13 13 14 14 12 10 9 9 11 11 9 7 6 5 5 7 8 9 9 8 8 8 8 8 5 4 4 4 4 3 1 1 2 3 2 2 2 1 2 2 2 3 4 5 6 7 8 8 9 10 10 11 10 9 9 10 11 11 12 13 12 11 10 10 11 12
16 16 15 15 15 15 14 14 14 13 13 12 11 11 10 11 12 13 11 10 10 12 13 13 11 9 9 10 10 10 9 8 7 6 6 7 8 9 9 9 8 7 7 5 2 3 1 1 3 3 2 2 2 1 1 1 1 2 3 3 3 4 5 6 7 8 9 9 10 10 10 10 10 10 11 12 12 12 12 11 10 10 10 10 10
16 16 16 15 14 14 14 14 13 13 12 11 10 10 10 11 11 11 11 10 10 10 12 12 12 10 10 9 9 10 10 10 10 8 8 9 9 9 9 10 9 8 8 7 4 2 1 0 2 3 3 2 1 1 2 1 2 3 3 3 4 5 5 6 7 8 9 9 9 10 10 10 11 12 12 12 12 12 12 11 10 10 10 10 10
17 17 17 15 15 15 15 15 14 14 11 10 11 10 9 10 10 11 11 11 11 12 12 13 12 11 10 9 9 10 11 12 11 10 10 11 10 9 9 9 9 7 7 7 5 3 3 1 1 2 2 2 2 1 1 1 1 2 2 3 4 5 6 6 7 7 8 9 9 9 10 11 12 12 13 13 12 12 11 10 10 11 10 10 10
15 16 16 15 13 13 14 14 15 15 13 11 12 11 10 9 11 13 12 11 11 11 12 13 12 11 11 10 10 11 12 13 12 10 9 10 11 9 7 8 9 6 4 5 6 4 2 2 1 1 3 4 3 1 1 1 0 1 2 3 4 5 6 7 7 8 9 9 10 10 10 11 12 12 13 13 12 11 9 9 11 12 11 10 10
14 14 15 13 11 10 12 14 13 14 13 12 12 12 11 11 11 12 12 12 11 11 12 12 12 12 11 11 12 12 12 11 10 8 7 8 10 9 6 7 7 4 3 5 7 5 2 4 3 2 3 3 2 1 1 2 2 2 2 4 5 6 7 8 8 9 10 11 12 12 12 12 12 13 12 12 12 9 8 10 11 12 11 9 9
14 13 12 11 10 11 14 14 11 10 11 11 12 13 13 13 12 11 11 11 10 11 11 11 12 12 10 11 13 13 12 11 10 9 8 8 10 8 6 7 6 3 3 5 7 6 5 6 5 3 3 4 3 2 1 2 3 3 4 4 5 6 7 8 9 10 11 12 13 13 14 14 13 14 13 13 11 9 8 10 11 11 10 9 10
13 12 11 11 12 11 13 13 11 11 10 10 12 13 14 14 13 11 10 9 9 9 10 12 13 12 11 12 13 13 12 11 10 11 10 10 11 8 6 6 5 4 5 6 7 8 6 5 4 4 3 1 1 1 2 5 5 5 5 5 6 7 8 8 9 11 12 13 14 14 14 14 14 14 14 13 13 11 9 10 11 10 9 9 10
12 11 10 10 11 10 11 13 14 13 11 10 12 13 13 14 13 11 10 9 9 9 10 11 12 12 13 14 14 12 10 10 10 11 11 11 10 7 4 3 3 5 7 7 7 7 6 5 6 4 1 1 1 1 3 5 5 5 7 7 7 8 9 10 10 12 13 14 14 15 15 14 14 14 14 13 13 13 11 11 11 10 9 10 10
12 11 10 10 10 9 9 10 12 13 12 11 12 13 13 12 12 12 11 10 10 10 9 9 9 11 12 13 13 12 10 10 11 11 11 11 9 6 4 3 4 5 6 7 7 6 5 4 5 5 4 2 2 4 4 5 6 6 8 9 9 10 11 12 13 13 14 14 15 15 15 14 14 15 14 14 13 13 12 11 11 11 9 10 10
13 12 11 11 11 10 9 8 9 12 12 11 12 13 12 11 11 11 10 11 12 11 9 9 9 11 12 12 13 13 12 11 11 11 11 11 10 8 7 6 5 5 5 6 7 6 5 3 3 6 5 1 3 5 5 6 8 9 9 10 11 11 12 12 13 14 14 14 14 14 14 14 14 14 14 14 13 12 12 10 10 11 10 9 10
15 14 14 13 12 12 11 9 8 10 12 12 12 12 12 11 11 10 10 11 12 11 10 11 11 11 11 11 12 13 13 11 11 11 10 10 10 9 9 7 6 4 4 5 6 6 6 3 3 4 3 1 1 3 5 6 8 10 11 11 11 12 13 13 14 14 14 14 14 14 15 15 15 14 14 13 13 12 11 9 9 10 10 8 9
16 16 15 15 13 13 13 12 10 9 11 12 12 12 12 12 11 11 11 11 11 11 11 11 11 11 11 10 11 12 11 10 9 9 9 9 9 8 7 7 6 6 6 7 6 5 6 5 3 1 1 1 3 4 4 4 6 10 12 11 11 11 13 14 14 13 14 14 15 16 16 17 17 16 14 13 13 12 10 9 8 10 10 8 8
16 16 15 15 15 14 13 12 11 9 10 12 12 12 12 12 12 11 11 11 11 11 11 11 11 11 11 11 11 11 11 10 9 9 9 9 8 7 7 6 5 6 7 7 4 3 4 3 2 2 2 3 5 5 3 4 8 10 10 9 10 12 14 14 13 12 14 15 17 18 18 18 18 17 16 14 14 13 11 9 9 11 10 9 10
17 17 16 16 15 14 13 12 11 10 10 12 12 13 12 12 12 12 11 12 12 12 12 12 11 10 11 11 12 13 13 11 9 8 8 8 8 7 7 6 4 3 4 5 2 1 2 4 1 1 2 1 2 4 4 7 11 10 8 8 11 11 12 11 11 11 14 16 17 18 21 22 21 18 17 16 14 14 13 10 10 11 10 10 11
19 18 17 17 16 15 14 13 12 11 11 12 13 13 13 13 13 13 13 14 13 12 13 11 10 11 12 12 11 12 12 11 9 8 7 7 6 6 5 4 4 4 4 4 4 2 1 3 2 1 2 1 2 5 7 9 12 11 7 8 11 9 7 8 11 14 15 16 18 20 23 23 20 17 15 14 13 13 13 11 11 11 11 10 10
20 19 18 18 18 17 16 15 14 13 13 14 15 14 14 14 14 14 15 15 14 13 12 12 12 12 12 11 10 9 9 8 7 8 8 7 6 6 6 5 5 6 6 4 5 4 2 1 1 1 2 3 3 5 6 8 12 11 8 10 12 11 9 7 11 14 14 16 18 21 22 20 20 18 14 11 10 10 10 10 11 12 12 11 10
22 21 19 19 19 18 18 18 17 16 15 15 16 16 15 16 15 15 15 15 14 13 12 13 15 15 13 12 12 10 10 10 9 8 8 7 8 8 8 7 7 7 6 6 6 5 5 4 2 2 4 4 2 4 6 10 11 8 6 9 12 12 9 7 9 12 12 14 16 18 21 20 21 21 16 11 10 9 9 9 10 12 12 12 10
24 23 22 21 20 19 20 20 18 18 17 16 17 17 16 17 17 16 16 15 14 14 14 15 16 15 13 13 11 11 12 12 10 9 9 8 9 9 8 8 7 6 7 8 7 7 6 4 3 5 5 4 4 6 7 9 10 8 5 7 10 8 6 9 9 10 11 12 14 17 20 20 21 21 17 14 12 10 9 9 10 11 12 12 9
26 25 24 23 22 21 22 21 20 20 18 17 18 19 18 18 17 17 18 17 15 14 15 16 15 14 13 14 13 12 12 12 11 10 9 9 9 9 9 9 9 8 9 9 9 8 7 5 5 5 4 4 5 6 7 8 11 9 5 8 9 5 6 7 9 11 8 10 14 17 18 19 19 19 18 17 16 14 12 11 11 12 12 12 10
27 26 25 25 24 22 22 22 22 21 19 18 19 20 20 19 17 16 16 16 15 16 16 16 15 14 15 15 15 14 13 13 12 11 10 9 9 10 12 12 11 10 10 9 9 8 7 6 6 4 3 4 5 6 7 6 7 5 6 11 11 9 9 9 10 10 10 12 15 14 14 16 17 18 19 19 18 17 15 15 14 13 13 12 10
29 27 26 25 24 23 22 23 24 22 21 21 21 21 20 19 17 15 15 15 16 17 17 16 15 15 15 16 16 16 15 14 13 13 12 11 11 13 14 14 13 11 11 11 10 9 9 7 6 3 2 4 6 6 5 2 2 6 10 13 12 12 13 10 8 10 13 14 16 14 13 13 15 17 18 18 18 17 16 17 17 15 14 12 9
30 28 27 25 24 24 24 24 24 24 23 23 23 21 20 20 19 17 15 16 17 17 17 17 17 16 16 17 17 16 15 15 15 14 13 13 13 14 15 15 14 13 13 13 12 11 10 8 5 4 3 3 4 4 3 3 7 11 11 11 10 11 12 12 9 10 15 16 18 20 16 10 9 14 16 15 15 15 17 20 19 18 16 13 10
30 28 27 26 24 24 24 23 23 24 24 23 23 22 20 20 20 19 17 17 17 17 18 17 18 18 17 17 17 16 15 15 16 15 14 15 15 14 15 15 14 14 13 13 12 12 11 7 4 5 6 5 5 6 6 8 11 11 9 9 10 8 10 13 10 11 15 15 19 21 14 5 5 11 13 12 14 16 19 21 20 20 19 15 12
30 28 26 26 25 24 23 22 22 23 24 24 23 22 20 20 20 19 18 18 17 17 18 17 18 19 18 17 17 17 16 15 16 17 17 18 17 15 16 17 15 14 13 12 11 10 11 9 5 5 6 6 7 8 8 9 9 10 10 8 8 6 10 12 11 11 13 14 18 20 12 4 5 9 10 11 13 15 18 19 20 21 19 15 12
28 27 26 26 26 24 23 23 23 23 24 24 24 24 23 22 21 20 19 19 18 17 17 17 17 18 18 18 17 16 15 15 16 17 18 19 17 16 18 19 18 17 15 13 11 11 12 11 8 7 5 6 9 10 10 9 9 11 10 8 8 8 9 10 11 11 12 13 16 18 14 7 6 10 10 9 11 13 17 20 21 21 20 15 10
28 28 27 27 26 26 25 25 24 23 23 24 25 25 24 22 22 21 21 20 19 17 17 16 16 16 16 16 16 15 14 16 17 17 18 18 18 17 18 20 20 19 16 15 13 13 13 12 10 10 7 6 8 10 11 10 10 11 11 10 11 9 8 10 12 13 14 14 13 14 14 10 7 9 9 8 11 15 19 22 21 19 20 17 10
28 29 29 27 27 26 25 24 23 22 22 23 23 24 23 22 21 21 22 21 19 17 17 16 15 13 12 13 14 14 15 16 17 17 16 17 17 18 18 19 19 18 16 15 14 15 16 15 13 12 11 10 11 12 13 11 11 13 13 11 11 8 7 10 12 13 16 14 11 9 11 10 7 6 7 10 15 16 18 20 19 17 21 22 14
29 29 28 27 26 26 24 24 24 23 23 22 21 22 22 20 19 20 20 21 20 18 15 14 14 12 11 12 14 15 16 16 16 15 15 15 16 16 16 17 18 18 16 15 15 15 16 17 16 16 15 14 14 16 18 15 13 14 12 11 10 7 9 12 12 12 15 13 9 7 9 11 11 9 7 10 14 16 16 17 17 18 21 23 18
27 27 27 26 26 25 23 23 24 24 23 22 20 21 21 19 18 19 20 21 22 22 19 16 15 13 12 14 15 15 16 16 15 14 13 14 15 14 14 15 17 16 15 14 14 15 17 18 17 18 18 17 17 18 19 17 15 13 11 10 8 6 7 9 9 10 13 13 11 10 10 11 13 13 10 7 10 14 16 16 17 18 19 21 20
26 26 26 25 25 24 21 23 24 23 22 21 20 20 21 21 20 20 20 21 22 24 23 21 19 17 16 16 16 16 17 17 15 14 13 14 16 16 15 14 13 13 14 14 14 15 17 17 18 18 18 18 18 19 19 18 16 14 12 10 8 6 6 5 6 8 10 12 13 12 11 10 10 12 12 7 7 13 15 15 15 16 16 19 20
26 26 26 25 24 23 21 21 22 22 21 19 19 20 20 21 21 22 21 21 21 21 22 23 22 20 19 18 17 18 18 18 16 15 14 16 17 17 16 14 12 12 13 14 14 14 14 16 18 18 18 18 18 19 19 18 17 16 14 12 10 9 7 4 5 7 8 10 11 9 8 8 8 10 12 9 8 11 13 13 13 13 16 18 17
27 26 25 25 24 22 21 20 20 22 22 19 18 19 19 20 21 22 21 21 21 21 21 22 21 20 20 20 20 19 19 18 17 16 15 16 17 16 16 15 14 13 12 13 14 13 12 13 15 16 17 18 19 19 19 19 18 18 16 14 12 12 10 7 6 5 6 9 9 8 9 9 9 10 10 9 9 10 12 13 13 14 16 16 15
Wind_Direction
194 188 188 191 179 185 219 235 204 203 186 152 196 231 199 212 210 200 195 190 202 206 198 216 230 211 221 239 232 229 225 209 183 210 268 278 301 313 218 216 192 182 181 179 183 182 183 179 176 169 161 161 157 154 155 153 150 144 139 133 127 119 106 84 48 19 11 10 11 11 18 24 29 59 81 81 76 67 55 44 34 23 19 17 13
205 197 195 204 202 194 215 237 201 203 212 170 192 202 185 200 198 190 192 193 195 203 201 204 228 220 212 227 223 231 225 217 183 188 251 262 267 9 54 316 201 207 208 204 202 194 192 188 186 180 173 176 172 167 166 163 161 154 150 149 145 146 137 110 1 358 351 352 353 358 12 20 42 80 80 76 71 58 42 31 28 21 16 10 7
202 198 200 199 203 205 206 213 197 208 217 194 199 194 184 193 196 194 185 192 198 195 205 203 214 218 212 217 205 215 221 221 196 186 232 251 245 257 354 33 43 290 224 223 222 211 202 193 190 184 177 180 182 181 178 174 172 166 164 167 177 197 209 245 291 320 325 328 330 339 347 351 60 85 75 69 62 46 29 20 21 17 10 4 2
201 197 200 193 195 204 196 199 203 212 214 202 208 194 186 195 194 200 184 181 199 189 199 207 202 205 206 208 197 195 199 208 208 192 227 254 254 256 277 286 284 315 235 220 226 222 216 203 194 190 184 181 184 185 183 187 188 184 182 187 202 224 243 256 276 293 301 306 311 318 314 318 72 82 72 64 50 32 19 14 14 11 6 0 359
201 197 200 195 195 193 185 204 208 216 219 201 212 198 188 206 193 198 191 177 195 194 200 210 205 207 209 212 204 197 192 191 203 195 211 253 260 261 273 272 262 266 268 244 211 220 222 214 203 197 195 191 193 193 192 198 206 207 205 211 223 238 253 258 269 279 282 292 298 295 287 269 109 86 69 55 34 17 8 6 8 6 1 356 355
205 200 201 196 196 188 183 205 199 215 231 202 215 210 189 210 198 187 199 186 194 206 210 212 215 218 214 214 211 212 208 199 205 199 194 225 250 265 276 268 260 265 263 254 238 228 220 217 209 202 206 206 206 207 204 209 218 225 229 234 240 243 252 256 258 266 272 282 283 273 263 216 139 94 62 37 16 5 358 359 2 359 352 352 352
210 206 206 202 201 195 188 197 189 202 227 204 211 219 198 204 197 187 206 203 202 216 221 217 219 225 223 223 223 224 220 210 211 206 199 210 230 259 272 266 263 267 264 260 249 242 228 214 200 190 205 213 218 221 218 220 227 236 243 244 246 241 242 246 247 260 272 287 284 277 269 178 121 80 36 12 1 356 353 352 353 349 346 349 348
212 207 209 208 207 206 193 185 192 205 217 209 206 218 214 200 192 201 210 204 214 230 235 229 226 231 237 240 240 233 221 217 217 210 212 213 208 241 264 267 270 271 266 263 254 251 243 221 197 137 142 190 204 213 210 212 220 228 235 236 236 229 225 223 223 245 69 57 56 44 44 73 54 21 356 349 347 345 343 342 342 342 346 347 343
211 210 211 211 207 211 198 180 199 215 215 219 211 207 224 214 197 204 208 198 217 245 247 240 237 241 246 246 247 242 224 221 226 219 218 214 202 228 258 263 267 271 270 265 253 255 260 241 223 194 174 170 169 169 165 166 180 188 193 198 194 181 168 155 123 84 78 68 60 51 43 24 341 328 327 330 332 332 330 330 331 336 343 342 338
212 215 215 214 209 210 207 194 206 217 208 217 215 197 215 232 213 205 210 196 204 250 255 245 244 244 248 251 251 248 233 223 229 226 217 217 212 218 244 254 262 265 262 263 258 256 257 250 245 221 203 203 205 219 220 194 172 166 161 162 160 160 149 115 93 64 38 24 20 12 356 340 325 317 320 320 321 321 320 322 323 329 337 336 333
215 219 218 216 214 212 212 207 208 214 208 215 218 202 206 233 232 223 220 203 197 245 258 254 252 247 249 258 257 251 244 232 230 229 224 227 223 216 230 244 256 260 254 256 259 256 250 250 258 251 226 209 211 229 254 267 272 277 274 258 248 255 276 302 325 322 319 320 323 327 323 319 315 311 313 312 312 313 313 316 318 323 330 330 330
216 217 215 211 214 214 213 211 211 215 217 220 220 210 207 223 236 237 233 220 209 234 260 266 263 259 256 262 266 257 247 239 238 238 235 234 230 226 231 235 240 250 250 250 253 253 250 255 258 255 245 226 222 235 264 276 275 277 276 274 276 278 287 293 300 302 300 302 302 306 306 304 304 303 304 305 306 308 309 313 316 320 326 327 327
212 212 209 207 211 214 212 211 215 217 221 222 213 207 216 227 235 237 232 232 224 231 255 262 261 269 266 258 261 260 249 243 244 245 243 239 236 234 237 239 240 243 247 249 252 250 249 253 249 250 254 241 239 250 269 277 267 268 269 272 276 280 290 293 297 298 295 297 297 298 299 298 299 299 300 301 303 305 307 310 312 316 320 322 321
206 209 206 205 208 215 213 211 215 219 220 221 211 202 211 225 232 232 226 230 230 228 236 233 229 250 260 260 259 258 250 247 250 251 251 246 241 242 245 252 250 249 252 252 250 247 248 249 241 244 246 222 228 247 249 251 245 245 253 268 280 283 291 294 296 298 296 298 298 298 299 299 300 300 301 301 301 301 301 303 305 308 310 313 314
204 205 204 203 205 212 215 210 215 221 220 222 219 208 206 214 225 229 226 227 228 229 229 229 233 238 247 259 262 268 266 263 262 260 261 256 247 245 250 258 258 259 263 261 261 259 252 246 232 238 248 216 256 265 257 267 272 269 261 267 277 278 284 289 294 299 301 304 304 306 308 309 310 309 309 307 305 302 301 302 303 304 305 307 310
206 202 201 201 202 209 215 213 216 222 222 223 225 221 216 217 224 226 223 218 223 233 232 232 246 245 245 255 263 283 289 285 283 272 267 261 254 251 252 258 262 270 273 269 274 271 260 256 242 246 273 246 291 288 275 286 305 294 274 267 268 269 273 279 289 296 302 308 311 315 317 318 319 319 318 315 311 307 303 303 303 303 303 304 306
204 201 200 201 202 208 214 217 220 223 225 226 228 229 225 226 231 232 230 225 223 232 233 238 248 245 249 256 259 287 294 289 290 282 271 263 261 258 252 258 268 277 279 274 284 283 266 260 244 236 274 158 240 278 231 203 167 211 254 266 273 280 285 287 294 298 303 310 316 321 323 322 323 321 320 317 314 310 305 301 299 300 300 302 305
204 202 201 201 203 210 215 219 223 224 226 228 231 232 231 232 236 239 242 241 236 235 238 245 248 245 249 250 246 263 288 292 293 284 276 267 263 256 249 257 262 263 268 268 281 289 281 279 253 183 343 219 253 280 237 210 186 234 263 286 299 307 312 310 309 306 307 312 314 318 320 322 322 318 317 315 313 311 308 302 298 298 299 300 303
207 206 205 205 206 211 216 220 225 228 228 230 234 236 236 236 240 244 243 240 239 240 242 245 246 245 243 240 240 246 265 286 289 281 280 273 263 256 257 269 266 262 271 269 254 256 280 306 310 313 300 262 270 292 273 258 285 348 2 351 322 320 319 314 307 302 301 302 304 306 307 310 310 308 309 310 309 309 309 305 298 298 301 300 301
209 209 209 211 213 215 219 223 227 233 236 236 239 242 239 238 243 245 238 231 235 239 240 241 243 242 232 231 235 237 248 256 253 258 268 273 264 253 258 267 264 265 274 275 249 237 257 315 288 281 266 261 265 269 283 289 309 340 347 328 310 316 314 304 297 294 296 298 299 299 298 298 299 300 303 305 306 306 307 305 299 298 301 300 298
211 211 211 212 215 219 224 228 229 233 240 243 243 245 243 241 243 242 236 235 235 233 235 235 236 236 227 223 227 229 237 241 239 239 243 255 256 243 245 248 245 252 257 253 240 219 173 129 293 266 226 220 238 247 263 294 319 316 308 307 308 310 306 298 297 298 302 304 303 301 297 295 296 298 300 303 305 305 304 305 305 305 304 301 297
219 218 218 215 217 222 224 230 231 232 238 243 244 244 242 244 243 238 236 237 235 229 227 227 228 232 228 221 221 223 229 233 228 224 230 240 240 234 233 232 233 239 235 231 232 217 171 153 300 251 200 150 144 179 234 246 284 296 297 307 307 303 301 301 306 308 309 309 307 306 303 300 299 298 299 300 302 304 305 309 314 312 307 302 298
225 224 221 215 219 227 228 231 233 232 235 239 244 243 237 241 243 238 233 231 234 227 221 224 224 226 224 219 220 222 227 232 223 214 227 238 238 238 234 228 230 226 202 204 220 217 168 168 233 155 140 127 131 142 86 111 152 275 301 310 306 303 305 307 311 312 312 312 311 310 308 307 306 305 304 302 301 302 306 314 317 313 307 302 299
226 229 227 219 218 224 231 237 233 227 229 232 241 246 242 241 243 240 234 229 230 224 220 223 222 223 225 221 221 222 227 231 223 213 222 234 240 245 245 239 235 215 179 189 202 200 177 196 195 121 128 139 122 119 121 97 47 7 344 325 315 311 310 309 309 309 308 308 308 307 306 305 305 305 306 304 300 299 309 316 313 307 303 301 299
235 241 242 239 234 224 227 237 231 221 224 226 234 242 244 244 243 242 240 235 231 226 225 224 220 223 232 231 227 227 227 227 219 212 213 225 233 238 240 233 231 229 190 171 181 189 183 186 177 116 116 138 120 109 121 62 15 356 345 328 317 315 312 310 310 309 308 308 307 306 305 304 302 300 301 303 301 301 309 312 308 301 297 295 294
245 247 247 249 251 242 233 234 229 221 221 223 228 234 237 240 242 241 242 242 240 236 231 226 222 222 229 232 230 229 225 220 216 212 213 224 230 234 240 225 218 232 213 180 175 182 173 156 138 106 103 126 82 42 10 358 356 344 331 328 325 321 319 318 316 314 314 312 310 310 308 307 304 301 300 302 304 306 308 308 304 298 292 291 289
252 253 249 246 249 250 240 232 229 224 219 220 226 230 233 236 240 238 234 235 236 236 233 228 224 224 228 230 227 227 224 220 220 217 216 226 232 229 234 240 237 227 208 184 171 167 159 143 125 118 162 255 315 337 339 341 347 336 324 328 330 326 324 322 320 317 315 313 312 312 311 310 308 306 305 304 305 306 307 306 304 297 293 291 285
254 256 254 253 254 258 253 237 227 221 217 220 228 232 232 233 237 236 230 229 230 230 228 227 226 227 232 231 224 221 222 221 221 217 217 223 223 205 198 235 236 204 177 168 168 157 158 163 139 148 184 208 304 318 324 318 324 330 328 331 329 326 324 321 320 318 314 313 312 311 311 310 310 309 308 307 307 306 305 306 305 296 291 289 282
247 251 253 255 256 259 262 252 229 217 215 219 227 235 237 233 234 236 233 227 227 226 223 225 226 226 229 227 222 220 217 216 215 213 213 215 210 192 188 204 197 174 166 169 167 151 158 177 132 151 173 222 308 320 330 321 322 328 330 333 331 329 327 323 320 316 312 311 309 308 308 308 310 312 311 311 310 307 307 311 308 297 293 291 285
243 245 246 247 248 249 253 252 240 225 219 219 224 233 239 237 233 232 228 221 221 223 221 222 224 227 229 224 224 226 222 220 218 212 207 208 207 194 187 188 177 170 174 166 158 151 157 158 127 156 181 160 218 299 315 316 323 326 331 338 335 328 326 323 320 317 315 311 307 305 304 303 305 308 311 314 314 313 314 316 306 295 297 297 289
238 238 241 244 247 249 249 251 251 239 227 224 226 230 235 238 235 229 228 225 223 222 220 220 222 230 235 228 224 227 226 226 221 212 207 208 208 199 189 182 180 193 186 165 157 155 161 162 139 142 286 206 235 287 312 321 320 324 333 341 335 328 327 327 325 323 320 316 312 310 308 305 301 299 301 308 314 318 321 318 298 287 290 291 287
237 238 241 245 248 250 251 252 253 245 234 231 231 230 231 234 234 233 232 229 226 227 227 226 225 229 233 231 228 225 223 221 214 209 211 214 211 205 202 191 191 211 191 169 159 156 187 216 182 184 254 288 304 317 346 324 316 330 342 342 335 330 326 325 327 327 327 323 320 318 316 312 305 296 292 294 299 306 314 314 293 282 280 280 282
235 238 241 244 246 248 250 252 249 242 236 234 233 231 228 229 232 233 232 231 230 231 231 229 228 232 234 232 231 228 222 213 208 212 215 219 218 214 213 199 193 238 209 173 171 195 254 296 315 208 266 318 311 304 316 318 327 348 358 341 334 329 324 329 334 337 337 334 333 332 328 324 318 307 295 290 290 292 298 301 293 285 280 277 276
235 236 239 242 244 246 248 250 249 242 236 235 235 233 231 230 231 232 232 235 236 234 233 231 230 236 236 233 235 237 228 210 198 204 210 215 218 216 223 213 196 238 245 203 196 201 298 328 350 13 332 226 237 299 316 323 334 352 360 340 340 345 352 352 345 344 345 342 340 336 332 335 339 331 311 299 295 290 290 292 291 290 288 284 281
236 235 236 239 242 243 243 244 245 242 237 239 241 239 239 238 237 237 238 238 240 241 238 235 234 240 245 247 253 257 247 230 213 207 204 203 206 204 210 219 219 230 239 233 218 199 188 288 341 16 290 272 312 332 322 317 332 353 360 346 355 15 25 4 340 340 341 338 337 333 334 345 355 352 338 317 308 300 294 291 287 287 289 289 286
237 237 235 237 241 242 241 240 242 243 241 241 244 244 245 246 244 241 241 242 246 249 248 242 241 244 246 248 251 247 238 233 226 218 211 210 216 214 205 210 230 238 240 247 248 234 232 255 282 261 265 281 316 314 304 314 333 359 4 347 8 32 24 338 322 330 335 335 334 331 335 349 356 355 353 343 329 314 303 298 292 289 289 288 284
235 237 235 236 239 240 242 243 243 245 244 240 242 244 244 246 248 246 246 249 253 254 252 249 247 247 246 245 248 248 241 233 224 213 214 224 232 230 219 214 224 236 243 251 259 266 266 265 263 264 278 298 309 311 309 318 339 4 9 350 17 36 343 311 329 351 350 339 330 326 333 346 354 353 353 353 348 338 322 309 300 298 298 292 282
234 236 238 238 238 237 241 246 245 244 243 240 241 244 245 247 249 249 250 253 255 255 252 250 249 248 250 249 249 252 249 240 232 219 214 228 236 234 230 230 230 230 240 253 263 272 274 263 264 281 310 314 314 321 311 324 353 10 355 338 358 11 322 337 19 18 347 319 319 322 327 340 349 350 350 351 349 348 346 336 318 304 301 299 288
233 236 239 239 239 239 238 241 244 243 241 240 242 243 247 250 247 245 250 250 249 250 250 251 251 247 247 244 242 246 245 239 237 228 213 217 231 234 234 236 236 229 234 252 265 275 282 276 275 296 322 299 302 309 301 325 10 9 320 331 352 7 1 16 32 7 321 307 318 323 326 338 345 343 345 347 342 342 349 350 341 321 306 303 296
234 236 238 237 239 241 236 235 240 242 238 237 239 241 244 248 248 246 247 243 242 249 251 250 251 249 246 244 242 243 243 241 242 235 217 209 221 233 236 237 239 237 241 255 264 272 280 280 282 287 274 282 302 308 298 317 355 319 320 335 358 12 3 6 19 348 321 316 322 324 327 339 341 336 342 344 334 333 344 347 344 336 324 313 300
234 235 235 233 234 238 236 234 237 237 235 235 237 239 241 244 246 249 248 244 245 254 255 249 249 249 248 248 245 240 237 238 240 237 225 217 220 229 238 242 246 250 256 263 264 265 269 270 274 274 273 290 290 264 251 291 320 324 329 344 13 19 349 343 359 342 324 323 329 330 326 327 336 339 346 344 329 330 342 340 335 335 332 324 314
232 233 231 229 231 236 236 233 232 231 232 234 235 236 235 235 239 245 248 247 249 254 254 250 250 251 252 250 245 238 235 236 238 237 233 229 225 228 241 247 250 256 262 267 268 268 265 256 249 259 271 283 262 244 264 305 319 317 311 338 19 22 329 326 339 330 322 331 344 347 344 332 340 341 339 334 327 329 334 331 329 331 327 320 319
228 229 227 225 227 233 232 226 224 226 229 231 234 235 233 233 236 241 245 246 248 252 255 253 252 252 253 252 242 235 235 237 238 238 236 234 231 231 240 246 250 255 260 266 273 273 261 248 238 248 268 278 264 264 288 304 304 288 283 320 358 343 317 326 331 325 325 338 355 5 15 26 358 346 332 320 318 320 323 327 332 334 330 319 311
222 223 223 221 221 224 223 220 221 224 226 228 232 236 239 239 239 241 245 247 249 254 257 256 253 253 256 253 241 234 236 238 239 238 235 235 238 239 240 244 250 255 259 264 269 267 257 246 232 228 248 278 270 269 280 277 264 266 277 306 322 313 325 345 347 341 336 338 350 4 14 16 1 356 343 316 310 317 324 332 336 340 343 333 307
220 220 219 217 216 218 220 222 225 225 224 226 231 236 240 241 241 242 244 245 248 253 255 255 255 256 254 248 239 236 238 237 237 236 233 234 240 244 243 244 248 252 258 265 267 261 253 246 238 228 231 260 263 256 260 257 252 263 275 294 308 317 343 356 355 351 341 331 333 352 9 14 3 3 355 322 316 326 331 333 337 346 355 353 328
219 218 218 215 215 219 222 224 227 228 226 226 229 235 238 238 240 241 241 241 242 244 246 251 260 263 256 246 240 241 243 239 235 234 234 237 240 240 240 242 243 247 254 262 265 260 251 247 248 243 237 244 250 249 250 251 258 269 276 289 307 329 353 350 351 352 345 335 322 332 359 4 350 356 356 330 324 328 331 334 341 350 355 357 351
217 216 216 215 215 218 219 218 222 228 231 228 228 232 235 237 238 236 236 236 234 233 236 246 258 264 257 247 244 244 244 241 237 236 238 239 238 235 234 235 238 243 252 259 261 258 253 251 252 251 247 243 244 252 258 260 267 275 279 288 305 338 351 344 350 353 346 343 335 326 344 349 337 326 322 323 324 324 326 333 343 349 352 357 1
216 217 216 215 216 216 214 213 217 223 226 226 229 232 233 235 234 230 230 230 227 227 230 237 246 250 247 244 243 243 245 242 239 240 242 241 237 235 236 235 236 242 252 258 257 253 252 253 252 254 256 249 244 253 263 270 274 276 278 285 300 332 334 328 343 348 341 341 339 329 324 327 329 326 318 311 316 318 317 323 337 347 353 1 7
213 217 218 215 215 215 212 213 217 220 223 224 229 233 231 230 229 227 227 228 228 228 231 236 242 243 243 245 244 245 248 247 242 243 245 240 234 234 240 242 239 241 247 252 254 250 248 249 250 254 258 255 251 257 265 272 274 274 275 278 284 297 300 306 327 331 331 334 331 326 318 309 315 328 327 314 307 311 310 315 331 346 353 358 5
211 215 216 215 215 214 211 212 213 217 221 223 225 229 229 229 229 227 227 228 230 231 232 237 242 242 242 247 249 249 252 251 245 242 241 235 228 229 235 242 247 247 244 247 253 250 247 248 249 251 254 254 254 259 263 267 269 269 271 272 274 282 286 292 306 309 324 338 335 330 324 311 305 320 325 321 318 318 313 314 327 344 349 351 1
210 213 213 213 215 212 209 212 213 216 221 223 223 226 229 229 228 228 227 228 230 233 234 238 244 245 243 246 249 251 252 249 242 236 233 228 224 225 228 236 248 250 241 242 249 248 244 247 250 252 254 255 257 259 261 262 262 262 265 266 269 278 282 281 286 303 331 340 332 320 308 300 303 317 322 322 324 322 319 318 325 337 342 344 351